Location: Carnoy
(49.9849°N, 2.7558°E)
Time: 13:16:35
(UTC+00:00)

Cosmos 1943 - Pass Details

Date: 24 January 2020
Orbit: 833 x 850 km, 71.0° (Epoch: 20 February)

Event Time Altitude Azimuth Distance (km) Brightness Sun altitude
Rises 19:49:31 0° 328° (NNW) 3,401 6.9 -31.9°
Reaches altitude 10° 19:51:59 10° 325° (NW) 2,465 6.1 -32.3°
Enters shadow 19:56:29 51° 291° (WNW) 1,055 3.9 -33.0°
